Fort Eustis, VA

4:27 AM EDT on October 17, 2019 (GMT -0400)
Felker Army Air Field

Weather History for KFAF - September, 2019

Change the Weather History Date:

Sunday, September 15, 2019

  Actual Average Record
Temperature  
Mean Temperature 78 °F -  
Max Temperature 84 °F 78 °F 93 °F (1998)
Min Temperature 72 °F 63 °F 53 °F (2013)
Cooling Degree Days 13    
Growing Degree Days 28 (Base 50)    
Moisture  
Dew Point 67 °F    
Average Humidity 71    
Maximum Humidity 84    
Minimum Humidity 51    
Precipitation  
Precipitation 0.00 in - - ()
Sea Level Pressure  
Sea Level Pressure 30.12 in    
Wind  
Wind Speed 3 mph ()    
Max Wind Speed 8 mph    
Max Gust Speed -    
Visibility 10.0 miles    
Events Rain    
Averages and records for this station are not official NWS values.
T = Trace of Precipitation, MM = Missing Value Source: Averaged Metar Reports

Daily Weather History Graph

Daily Weather History Graph

Search for Another Location

Airport or City:

Astronomy

Sep. 15, 2019 Rise Set
Actual Time 6:48 AM EDT 7:14 PM EDT
Civil Twilight 6:22 AM EDT 7:40 PM EDT
Nautical Twilight 5:51 AM EDT 8:11 PM EDT
Astronomical Twilight 5:20 AM EDT 8:42 PM EDT
Moon 8:22 PM EDT (9/15) 7:55 AM EDT (9/15)
Length of Visible Light 13h 18m
Length of Day
12h 26m
Full, 98% of the Moon is Illuminated
Sep 15
Full
Sep 21
Last Quarter
Sep 28
New
Oct 5
First Quarter
Oct 13
Full

Hourly Weather History & Observations

Time (EDT) Temp. Heat Index Dew Point Humidity Pressure Visibility Wind Dir Wind Speed Gust Speed Precip Events Conditions
12:56 AM 76.1 °F - 68.0 °F 76% 30.16 in 10.0 mi South 8.1 mph - N/A   Overcast
1:56 AM 75.7 °F - 68.4 °F 78% 30.16 in 10.0 mi SSE 3.5 mph - N/A   Overcast
2:56 AM 75.4 °F - 68.4 °F 79% 30.15 in 10.0 mi South 4.6 mph - N/A   Mostly Cloudy
3:56 AM 74.3 °F - 68.0 °F 81% 30.14 in 10.0 mi Calm Calm - N/A   Scattered Clouds
4:56 AM 72.9 °F - 67.3 °F 83% 30.14 in 10.0 mi Calm Calm - N/A   Scattered Clouds
5:56 AM 72.5 °F - 67.3 °F 84% 30.14 in 10.0 mi Calm Calm - N/A   Clear
6:56 AM 72.0 °F - 66.7 °F 84% 30.15 in 10.0 mi Calm Calm - N/A   Clear
7:56 AM 73.4 °F - 68.2 °F 84% 30.15 in 10.0 mi Calm Calm - N/A   Scattered Clouds
8:56 AM 76.3 °F - 69.6 °F 80% 30.16 in 10.0 mi SE 3.5 mph - N/A   Partly Cloudy
9:07 AM 77.0 °F - 69.8 °F 78% 30.17 in 10.0 mi Calm Calm - N/A Rain Light Rain
9:43 AM 78.8 °F - 69.8 °F 74% 30.16 in 10.0 mi South 4.6 mph - N/A   Mostly Cloudy
9:56 AM 78.3 °F - 68.9 °F 73% 30.16 in 10.0 mi South 4.6 mph - 0.00 in   Mostly Cloudy
10:56 AM 79.7 °F - 67.3 °F 66% 30.15 in 10.0 mi Calm Calm - N/A   Scattered Clouds
11:56 AM 82.0 °F 84.7 °F 67.3 °F 61% 30.14 in 10.0 mi Calm Calm - N/A   Mostly Cloudy
12:56 PM 82.9 °F 85.8 °F 67.6 °F 60% 30.13 in 10.0 mi NW 4.6 mph - N/A   Partly Cloudy
1:56 PM 83.8 °F 86.7 °F 67.5 °F 58% 30.12 in 10.0 mi NW 6.9 mph - N/A   Scattered Clouds
2:56 PM 84.2 °F 86.8 °F 66.7 °F 56% 30.10 in 10.0 mi East 8.1 mph - N/A   Mostly Cloudy
3:56 PM 84.2 °F 85.8 °F 64.6 °F 52% 30.08 in 10.0 mi East 5.8 mph - N/A   Clear
4:56 PM 84.2 °F 85.6 °F 64.0 °F 51% 30.08 in 10.0 mi East 5.8 mph - N/A   Scattered Clouds
5:56 PM 83.1 °F 84.8 °F 64.8 °F 54% 30.08 in 10.0 mi East 4.6 mph - N/A   Scattered Clouds
6:56 PM 80.1 °F 82.0 °F 65.3 °F 61% 30.07 in 10.0 mi East 4.6 mph - N/A   Clear
7:56 PM 78.1 °F - 67.1 °F 69% 30.08 in 10.0 mi East 3.5 mph - N/A   Partly Cloudy
8:56 PM 76.8 °F - 67.5 °F 73% 30.09 in 10.0 mi ENE 3.5 mph - N/A   Partly Cloudy
9:56 PM 75.2 °F - 67.5 °F 77% 30.09 in 10.0 mi Calm Calm - N/A   Clear
10:56 PM 74.7 °F - 67.6 °F 79% 30.08 in 10.0 mi Calm Calm - N/A   Clear
11:56 PM 73.6 °F - 68.0 °F 83% 30.08 in 10.0 mi SE 3.5 mph - N/A   Clear